FPO7SN EIDW-EINN

Flight info

Callsign FPO7SN
Flight time 0h 38m
Altitude 14000
Route PELIG DCT DIGAN DIGAN2D
Aircraft B738/M-SDE2E3FGHIRWXY/LB1

Departure

Time 2026-05-07 02:17
Airport Dublin Airport (EIDW)

Arrival

Time 2026-05-07 02:56
Airport Shannon Airport (EINN)
Time Latitude Longitude Altitude Speed Heading
2026-05-07 01:50 53.42438 -6.26037 210 ft 0 kts 225°
2026-05-07 02:08 53.42450 -6.26017 210 ft 4 kts 222°
2026-05-07 02:09 53.42471 -6.25989 212 ft 4 kts 210°
2026-05-07 02:09 53.42493 -6.25976 219 ft 4 kts 162°
2026-05-07 02:09 53.42501 -6.25985 213 ft 0 kts 96°
2026-05-07 02:13 53.42493 -6.25914 219 ft 15 kts 113°
2026-05-07 02:13 53.42405 -6.25912 212 ft 15 kts 223°
2026-05-07 02:13 53.42333 -6.26036 210 ft 15 kts 228°
2026-05-07 02:13 53.42267 -6.26250 210 ft 23 kts 265°
2026-05-07 02:14 53.42276 -6.26512 213 ft 22 kts 274°
2026-05-07 02:14 53.42292 -6.26766 210 ft 22 kts 276°
2026-05-07 02:14 53.42308 -6.27019 219 ft 25 kts 275°
2026-05-07 02:14 53.42323 -6.27313 219 ft 25 kts 274°
2026-05-07 02:15 53.42337 -6.27591 219 ft 23 kts 275°
2026-05-07 02:15 53.42352 -6.27854 214 ft 22 kts 276°
2026-05-07 02:15 53.42367 -6.28109 210 ft 22 kts 276°
2026-05-07 02:15 53.42381 -6.28358 218 ft 22 kts 274°
2026-05-07 02:16 53.42395 -6.28637 210 ft 26 kts 276°
2026-05-07 02:16 53.42412 -6.28917 213 ft 20 kts 275°
2026-05-07 02:16 53.42340 -6.29076 215 ft 19 kts 186°
2026-05-07 02:16 53.42241 -6.28976 212 ft 19 kts 102°
2026-05-07 02:17 53.42215 -6.28505 213 ft 76 kts 95°
2026-05-07 02:17 53.42143 -6.27203 209 ft 146 kts 95°
2026-05-07 02:17 53.42031 -6.25277 577 ft 171 kts 98°
2026-05-07 02:17 53.41894 -6.23247 1297 ft 187 kts 99°
2026-05-07 02:18 53.41747 -6.20955 1859 ft 205 kts 98°
2026-05-07 02:18 53.41617 -6.18492 2395 ft 215 kts 98°
2026-05-07 02:18 53.41491 -6.16016 3089 ft 221 kts 98°
2026-05-07 02:18 53.41223 -6.13360 3589 ft 234 kts 105°
2026-05-07 02:19 53.40897 -6.10732 4595 ft 230 kts 104°
2026-05-07 02:19 53.40617 -6.07993 5057 ft 252 kts 97°
2026-05-07 02:19 53.40496 -6.04971 5625 ft 266 kts 96°
2026-05-07 02:19 53.40038 -6.01983 6403 ft 267 kts 123°
2026-05-07 02:20 53.38686 -5.99934 7174 ft 266 kts 158°
2026-05-07 02:20 53.36892 -5.99519 7934 ft 267 kts 188°
2026-05-07 02:20 53.35046 -6.00026 8604 ft 270 kts 191°
2026-05-07 02:20 53.33189 -6.00551 8938 ft 272 kts 190°
2026-05-07 02:21 53.31320 -6.01054 8952 ft 273 kts 190°
2026-05-07 02:21 53.29445 -6.01542 8953 ft 272 kts 190°
2026-05-07 02:21 53.27594 -6.02182 8967 ft 271 kts 197°
2026-05-07 02:21 53.25787 -6.03127 9043 ft 274 kts 199°
2026-05-07 02:22 53.23961 -6.04111 9754 ft 276 kts 199°
2026-05-07 02:22 53.22125 -6.05075 10523 ft 280 kts 198°
2026-05-07 02:22 53.20212 -6.06064 10952 ft 295 kts 198°
2026-05-07 02:22 53.18139 -6.06816 11493 ft 308 kts 188°
2026-05-07 02:23 53.15980 -6.07153 12148 ft 315 kts 186°
2026-05-07 02:23 53.13781 -6.07449 12922 ft 319 kts 187°
2026-05-07 02:23 53.11566 -6.07788 13644 ft 320 kts 189°
2026-05-07 02:23 53.09427 -6.08651 13942 ft 316 kts 200°
2026-05-07 02:24 53.07349 -6.09907 13953 ft 318 kts 202°
2026-05-07 02:24 53.05296 -6.11234 13959 ft 315 kts 202°
2026-05-07 02:24 53.03249 -6.12527 13964 ft 314 kts 201°
2026-05-07 02:24 53.01197 -6.13777 13972 ft 314 kts 201°
2026-05-07 02:25 52.99140 -6.15003 13967 ft 314 kts 201°
2026-05-07 02:25 52.97083 -6.16219 13970 ft 314 kts 201°
2026-05-07 02:25 52.95161 -6.17895 13968 ft 313 kts 219°
2026-05-07 02:25 52.93718 -6.20557 13975 ft 312 kts 236°
2026-05-07 02:26 52.92558 -6.23604 13972 ft 313 kts 238°
2026-05-07 02:26 52.91426 -6.26705 13974 ft 314 kts 238°
2026-05-07 02:26 52.90297 -6.29811 13969 ft 315 kts 238°
2026-05-07 02:26 52.89163 -6.32914 13974 ft 315 kts 238°
2026-05-07 02:27 52.88020 -6.36019 13972 ft 316 kts 238°
2026-05-07 02:27 52.86870 -6.39125 13966 ft 316 kts 238°
2026-05-07 02:27 52.85718 -6.42224 13972 ft 316 kts 238°
2026-05-07 02:27 52.84564 -6.45319 13973 ft 316 kts 238°
2026-05-07 02:28 52.83410 -6.48406 13971 ft 316 kts 238°
2026-05-07 02:28 52.82254 -6.51494 13971 ft 315 kts 238°
2026-05-07 02:28 52.81099 -6.54576 13969 ft 315 kts 238°
2026-05-07 02:28 52.79944 -6.57651 13971 ft 315 kts 238°
2026-05-07 02:29 52.78791 -6.60719 13974 ft 315 kts 238°
2026-05-07 02:29 52.77651 -6.63750 13972 ft 315 kts 238°
2026-05-07 02:29 52.76773 -6.66082 13971 ft 315 kts 238°
2026-05-07 02:29 52.75616 -6.69150 13975 ft 314 kts 238°
2026-05-07 02:30 52.74459 -6.72211 13973 ft 314 kts 238°
2026-05-07 02:30 52.73326 -6.75293 13966 ft 314 kts 243°
2026-05-07 02:30 52.72750 -6.78757 13980 ft 315 kts 264°
2026-05-07 02:30 52.72937 -6.82360 13982 ft 317 kts 281°
2026-05-07 02:31 52.73463 -6.85927 13997 ft 329 kts 283°
2026-05-07 02:31 52.74070 -6.89717 13985 ft 353 kts 283°
2026-05-07 02:31 52.74724 -6.93747 13989 ft 374 kts 283°
2026-05-07 02:31 52.75410 -6.98002 13987 ft 393 kts 283°
2026-05-07 02:32 52.76113 -7.02414 13976 ft 401 kts 283°
2026-05-07 02:32 52.76815 -7.06862 13967 ft 398 kts 283°
2026-05-07 02:32 52.77506 -7.11287 13955 ft 398 kts 283°
2026-05-07 02:32 52.78191 -7.15706 13961 ft 397 kts 283°
2026-05-07 02:33 52.78864 -7.20070 13957 ft 397 kts 283°
2026-05-07 02:33 52.79541 -7.24490 13959 ft 397 kts 283°
2026-05-07 02:33 52.80218 -7.28916 13963 ft 398 kts 283°
2026-05-07 02:33 52.80893 -7.33348 13967 ft 398 kts 283°
2026-05-07 02:34 52.81567 -7.37785 13963 ft 398 kts 283°
2026-05-07 02:34 52.82242 -7.42233 13965 ft 398 kts 283°
2026-05-07 02:34 52.82914 -7.46680 13965 ft 399 kts 283°
2026-05-07 02:34 52.83583 -7.51120 13963 ft 399 kts 283°
2026-05-07 02:35 52.84252 -7.55572 13965 ft 399 kts 283°
2026-05-07 02:35 52.84920 -7.60026 13966 ft 399 kts 283°
2026-05-07 02:35 52.85585 -7.64477 13969 ft 399 kts 282°
2026-05-07 02:35 52.86249 -7.68932 13964 ft 399 kts 282°
2026-05-07 02:36 52.86912 -7.73389 13966 ft 399 kts 282°
2026-05-07 02:36 52.87572 -7.77842 13964 ft 399 kts 282°
2026-05-07 02:36 52.88231 -7.82301 13965 ft 399 kts 282°
2026-05-07 02:36 52.88888 -7.86759 13966 ft 399 kts 282°
2026-05-07 02:37 52.89543 -7.91215 13966 ft 398 kts 282°
2026-05-07 02:37 52.90195 -7.95667 13965 ft 398 kts 282°
2026-05-07 02:37 52.90848 -8.00132 13965 ft 398 kts 282°
2026-05-07 02:37 52.91498 -8.04593 13961 ft 398 kts 282°
2026-05-07 02:38 52.92148 -8.09058 13966 ft 398 kts 282°
2026-05-07 02:38 52.92794 -8.13516 13964 ft 398 kts 282°
2026-05-07 02:38 52.93426 -8.17978 13961 ft 398 kts 280°
2026-05-07 02:38 52.93541 -8.22528 13965 ft 395 kts 262°
2026-05-07 02:39 52.93091 -8.26952 13974 ft 395 kts 259°
2026-05-07 02:39 52.92621 -8.31438 13967 ft 395 kts 259°
2026-05-07 02:39 52.92160 -8.35933 13964 ft 395 kts 259°
2026-05-07 02:39 52.91710 -8.40415 13965 ft 390 kts 260°
2026-05-07 02:40 52.91282 -8.44740 13952 ft 371 kts 260°
2026-05-07 02:40 52.90879 -8.48833 13950 ft 351 kts 260°
2026-05-07 02:40 52.90497 -8.52721 13950 ft 333 kts 260°
2026-05-07 02:40 52.90149 -8.56249 13950 ft 317 kts 260°
2026-05-07 02:41 52.89796 -8.59811 13730 ft 308 kts 260°
2026-05-07 02:41 52.89456 -8.63234 13455 ft 295 kts 260°
2026-05-07 02:41 52.89128 -8.66526 13174 ft 286 kts 260°
2026-05-07 02:41 52.88804 -8.69766 12866 ft 285 kts 260°
2026-05-07 02:42 52.88478 -8.73013 12546 ft 287 kts 260°
2026-05-07 02:42 52.88151 -8.76267 12223 ft 286 kts 260°
2026-05-07 02:42 52.87825 -8.79508 11901 ft 284 kts 260°
2026-05-07 02:42 52.87500 -8.82720 11580 ft 282 kts 260°
2026-05-07 02:43 52.87177 -8.85902 11255 ft 281 kts 259°
2026-05-07 02:43 52.86573 -8.88955 10922 ft 280 kts 239°
2026-05-07 02:43 52.85440 -8.91558 10615 ft 278 kts 233°
2026-05-07 02:43 52.84245 -8.94081 10277 ft 278 kts 232°
2026-05-07 02:44 52.83060 -8.96563 10128 ft 271 kts 232°
2026-05-07 02:44 52.81910 -8.98974 9979 ft 264 kts 232°
2026-05-07 02:44 52.80790 -9.01329 9670 ft 257 kts 232°
2026-05-07 02:44 52.79696 -9.03639 9386 ft 254 kts 232°
2026-05-07 02:45 52.78611 -9.05932 9116 ft 254 kts 232°
2026-05-07 02:45 52.77528 -9.08223 8846 ft 258 kts 232°
2026-05-07 02:45 52.76424 -9.10559 8558 ft 257 kts 232°
2026-05-07 02:45 52.75343 -9.12846 8269 ft 249 kts 232°
2026-05-07 02:46 52.74286 -9.15079 8009 ft 246 kts 231°
2026-05-07 02:46 52.73233 -9.17304 7747 ft 247 kts 231°
2026-05-07 02:46 52.72166 -9.19558 7494 ft 252 kts 231°
2026-05-07 02:46 52.71088 -9.21833 7211 ft 249 kts 231°
2026-05-07 02:47 52.70049 -9.24023 7031 ft 234 kts 231°
2026-05-07 02:47 52.69089 -9.26045 6910 ft 215 kts 231°
2026-05-07 02:47 52.68192 -9.27933 6804 ft 202 kts 230°
2026-05-07 02:47 52.67338 -9.29727 6460 ft 202 kts 230°
2026-05-07 02:48 52.66465 -9.31499 6136 ft 195 kts 222°
2026-05-07 02:48 52.65330 -9.32443 5977 ft 180 kts 191°
2026-05-07 02:48 52.64098 -9.32337 5743 ft 177 kts 166°
2026-05-07 02:48 52.63030 -9.31365 5517 ft 176 kts 145°
2026-05-07 02:49 52.62074 -9.30136 5318 ft 175 kts 146°
2026-05-07 02:49 52.61105 -9.28905 5100 ft 177 kts 145°
2026-05-07 02:49 52.60463 -9.28087 4954 ft 176 kts 145°
2026-05-07 02:49 52.59176 -9.26442 4652 ft 174 kts 145°
2026-05-07 02:50 52.58227 -9.25226 4427 ft 172 kts 145°
2026-05-07 02:50 52.57368 -9.23877 4195 ft 173 kts 119°
2026-05-07 02:50 52.57223 -9.22614 4232 ft 174 kts 83°
2026-05-07 02:50 52.57678 -9.20700 4068 ft 184 kts 66°
2026-05-07 02:51 52.58258 -9.18844 3815 ft 181 kts 61°
2026-05-07 02:51 52.58884 -9.17073 3564 ft 178 kts 60°
2026-05-07 02:51 52.59548 -9.15355 3324 ft 178 kts 56°
2026-05-07 02:51 52.60268 -9.13713 3106 ft 172 kts 53°
2026-05-07 02:52 52.60969 -9.12191 2849 ft 163 kts 53°
2026-05-07 02:52 52.61659 -9.10710 2627 ft 162 kts 52°
2026-05-07 02:52 52.62343 -9.09245 2407 ft 160 kts 52°
2026-05-07 02:52 52.63020 -9.07800 2182 ft 159 kts 52°
2026-05-07 02:53 52.63692 -9.06362 1960 ft 158 kts 52°
2026-05-07 02:53 52.64361 -9.04932 1753 ft 158 kts 52°
2026-05-07 02:53 52.65031 -9.03501 1523 ft 157 kts 52°
2026-05-07 02:53 52.65698 -9.02075 1308 ft 157 kts 52°
2026-05-07 02:54 52.66361 -9.00661 1084 ft 155 kts 52°
2026-05-07 02:54 52.67017 -8.99261 849 ft 153 kts 53°
2026-05-07 02:54 52.67648 -8.97849 634 ft 153 kts 55°
2026-05-07 02:54 52.68302 -8.96480 428 ft 151 kts 51°
2026-05-07 02:55 52.68956 -8.95129 214 ft 152 kts 53°
2026-05-07 02:55 52.69598 -8.93765 42 ft 146 kts 53°
2026-05-07 02:55 52.70141 -8.92612 32 ft 105 kts 52°
2026-05-07 02:55 52.70492 -8.91861 28 ft 61 kts 52°
2026-05-07 02:56 52.70674 -8.91474 25 ft 32 kts 52°
2026-05-07 02:56 52.70770 -8.91230 25 ft 19 kts 98°
2026-05-07 02:56 52.70666 -8.91143 22 ft 17 kts 167°
2026-05-07 02:56 52.70553 -8.91105 23 ft 16 kts 170°
2026-05-07 02:57 52.70443 -8.91074 22 ft 16 kts 171°
2026-05-07 02:57 52.70338 -8.91043 22 ft 15 kts 168°
2026-05-07 02:57 52.70237 -8.91010 22 ft 14 kts 171°
2026-05-07 02:57 52.70138 -8.91042 22 ft 16 kts 198°
2026-05-07 02:58 52.69997 -8.91120 23 ft 27 kts 198°
2026-05-07 02:58 52.69818 -8.91219 22 ft 26 kts 198°
2026-05-07 02:58 52.69650 -8.91311 23 ft 25 kts 198°
2026-05-07 02:58 52.69495 -8.91396 22 ft 23 kts 198°
2026-05-07 02:59 52.69347 -8.91478 22 ft 20 kts 199°
2026-05-07 02:59 52.69240 -8.91527 22 ft 7 kts 175°
2026-05-07 02:59 52.69238 -8.91526 22 ft 1 kts 174°
2026-05-07 02:59 52.69187 -8.91552 22 ft 9 kts 219°
2026-05-07 03:00 52.69171 -8.91574 21 ft 0 kts 220°